STARLINK-36789, 68118

Orbit data source: Space-Track

STARLINK-36789, 68118 is a payload satellite owned by SpaceX/Seattle (US) in SSO that was launched on Sun, 08 Mar 2026 UTC via an FALCON 9 launch vehicle from the Air Force Western Test Range (AFWTR). Payload-class satellites include a variety of spacecraft equipped with specific instruments for various scientific and technological missions. These include communications satellites like Starlink; space stations such as the ISS; scientific satellites like the Hubble; Earth observation satellites from companies like Planet Labs, Umbra, and HawkEye 360; GPS; miniature CubeSats for education and research; and military/defense satellites.

Loading next visibility...
Identifier
68118, 2026-044T
Orbit
SSO
Country
Flag of USUS
Related business
Manufacturer
SpaceX/Seattle
Mission
Operational spacecraft
Bus & Motor
STARLINK V2MO, Unknown motor
Mass
575 kg wet, ~530 kg dry
Launch date (UTC)
2026-03-08 (2 months ago)
Launch vehicle
FALCON 9
Launch site
Air Force Western Test Range (AFWTR)
Object type
Payload
Rocket body
Debris
Shape & HBR
Unknown shape, 17.7 m
Radar Cross Section
RCS unknown

Expand to show TLE details & history
Last TLE update: 20 hours ago

TLE from 20 hours ago
0 STARLINK-36789
1 68118U 26044T   26134.64695569  .00016703  00000-0  51915-3 0  9997
2 68118  97.2865  95.4613 0002556  91.1071 269.0464 15.33406640 11698
Epoch: 2026-05-14T15:31Z
TLE epoch observation values (Epoch: 2026-05-14T15:31:36.971Z)
Latitude
-0.00009°
Longitude
-9.83236°
Altitude
468.799 km
Speed
7.632 km/s
True Right ascension
06h 21m 50s
True Declination
0° 00' 00"
Sunlit
Object was in daylight at epoch
Visualization orbit readout
Latitude
Unknown
Longitude
Unknown
Altitude
Unknown
Speed
Unknown
Apparent Right ascension
Unknown
Apparent Declination
Unknown
Sunlit
N/A
Visualization observer readout
Local Sidereal Time
19:58:52
Azimuth
Unknown
Elevation
Unknown
Doppler factor
Unknown
Orbital elements
Apogee altitude
464.349 km
Perigee altitude
460.852 km
Semi-major axis
6,840.737 km
Eccentricity
0.00026
Inclination
97.2865°
RAAN
95.4613°
Arg. of periapsis
91.1071°
True anomaly
269.01711°
Mean anomaly
269.0464°
Eccentric anomaly
269.03176°
Mean motion
3.83609 °/min
Orbital period
93.85 mins
BSTAR
0.00051915
Loading maneuver chart data...
Computing Atmospheric mass density...
Loading historical data...
Loading historical data...
Loading historical data...
Loading historical data...
Loading historical data...
Loading historical data...
Loading historical data...

Documentation

Showing up to 5 results
|